,,PA_Meas_PMT16A,,PR_Meas_QMR101_102,,RH_Meas_QMH101,,SR_Meas_QMS101,,TA_Meas_QMH101,,GenWind,,GenWind,
time,status,PA,status,PR,status,RH,status,SR,status,TA,status,DirAvg,status,SpdAvg,
2011-05-07, 00:00:05,VALID,917.221,VALID,0,VALID,89.5446,VALID,0.107441,VALID,21.7282,VALID,205,VALID,0.989453,
2011-05-07, 00:01:05,VALID,917.225,VALID,0,VALID,89.781,VALID,0.107441,VALID,21.7493,VALID,205,VALID,0.393359,
2011-05-07, 00:02:05,VALID,917.198,VALID,0,VALID,90.0097,VALID,0.107441,VALID,21.7103,VALID,205,VALID,0.508203,
2011-05-07, 00:03:05,VALID,917.187,VALID,0,VALID,89.7276,VALID,0,VALID,21.6908,VALID,205,VALID,1.22695,
2011-05-07, 00:04:05,VALID,917.144,VALID,0,VALID,89.3998,VALID,0,VALID,21.6713,VALID,263,VALID,1.79805,
2011-05-07, 00:05:05,VALID,917.119,VALID,0,VALID,89.2168,VALID,0,VALID,21.6891,VALID,269,VALID,1.70156,
2011-05-07, 00:06:05,VALID,917.084,VALID,0,VALID,89.4303,VALID,0.107441,VALID,21.7298,VALID,279,VALID,0.920313,
2011-05-07, 00:07:04,VALID,917.08,VALID,0,VALID,89.3541,VALID,0,VALID,21.7087,VALID,279,VALID,0.989453,
2011-05-07, 00:08:04,VALID,917.044,VALID,0,VALID,89.9792,VALID,0,VALID,21.7282,VALID,16,VALID,0.746484,
2011-05-07, 00:09:04,VALID,917.04,VALID,0,VALID,90.0935,VALID,0.107441,VALID,21.7103,VALID,16,VALID,0.311328,
2011-05-07, 00:10:04,VALID,917.021,VALID,0,VALID,89.8267,VALID,0,VALID,21.6713,VALID,16,VALID,1.09453,
2011-05-07, 00:11:04,VALID,917.039,VALID,0,VALID,90.1393,VALID,0,VALID,21.6501,VALID,15,VALID,1.31133,
2011-05-07, 00:12:04,VALID,917.07,VALID,0,VALID,90.4518,VALID,0,VALID,21.6713,VALID,4,VALID,0.696875,
2011-05-07, 00:13:04,VALID,917.062,VALID,0,VALID,90.4671,VALID,0,VALID,21.6713,VALID,350,VALID,0.427734,
2011-05-07, 00:14:04,VALID,917.014,VALID,0,VALID,90.3756,VALID,0,VALID,21.6518,VALID,350,VALID,0.520703,
2011-05-07, 00:15:04,VALID,917.018,VALID,0,VALID,90.4823,VALID,0,VALID,21.6111,VALID,350,VALID,0.229687,
2011-05-07, 00:16:04,VALID,916.991,VALID,0,VALID,90.711,VALID,0,VALID,21.5721,VALID,203,VALID,0.835156,
2011-05-07, 00:17:04,VALID,916.992,VALID,0,VALID,90.9626,VALID,0,VALID,21.5347,VALID,203,VALID,0.869531,
2011-05-07, 00:18:04,VALID,916.937,VALID,0,VALID,91.237,VALID,0.107441,VALID,21.4746,VALID,219,VALID,1.11367,
2011-05-07, 00:19:04,VALID,916.916,VALID,0,VALID,91.42,VALID,0,VALID,21.455,VALID,204,VALID,1.35547,
2011-05-07, 00:20:04,VALID,916.845,VALID,0,VALID,91.3057,VALID,0,VALID,21.4762,VALID,204,VALID,1.16797,
2011-05-07, 00:21:04,VALID,916.816,VALID,0,VALID,91.3514,VALID,0,VALID,21.455,VALID,204,VALID,0.669922,
2011-05-07, 00:22:04,VALID,916.805,VALID,0,VALID,91.4505,VALID,0,VALID,21.4567,VALID,204,VALID,0.567187,
2011-05-07, 00:23:04,VALID,916.826,VALID,0,VALID,91.7326,VALID,0,VALID,21.4567,VALID,204,VALID,0.168359,
2011-05-07, 00:24:04,VALID,916.836,VALID,0,VALID,91.7326,VALID,0,VALID,21.455,VALID,204,VALID,0.605078,
2011-05-07, 00:25:04,VALID,916.858,VALID,0,VALID,91.7478,VALID,0.107441,VALID,21.4762,VALID,204,VALID,0.707812,
2011-05-07, 00:26:04,VALID,916.873,VALID,0,VALID,91.7707,VALID,0.107441,VALID,21.4746,VALID,204,VALID,0.132813,
2011-05-07, 00:27:04,VALID,916.916,VALID,0,VALID,91.9003,VALID,0,VALID,21.455,VALID,204,VALID,0.467969,
2011-05-07, 00:28:04,VALID,916.863,VALID,0,VALID,91.9994,VALID,0.107441,VALID,21.4746,VALID,204,VALID,0.313672,
2011-05-07, 00:29:04,VALID,916.848,VALID,0,VALID,92.2205,VALID,0,VALID,21.4762,VALID,204,VALID,0.513281,
2011-05-07, 00:30:04,VALID,916.826,VALID,0,VALID,92.0756,VALID,0.107441,VALID,21.455,VALID,204,VALID,0.712891,
2011-05-07, 00:31:04,VALID,916.819,VALID,0,VALID,92.3501,VALID,0,VALID,21.4762,VALID,204,VALID,0.892969,
2011-05-07, 00:32:04,VALID,916.791,VALID,0,VALID,92.3577,VALID,0,VALID,21.4372,VALID,204,VALID,0.873828,
2011-05-07, 00:33:04,VALID,916.723,VALID,0,VALID,92.6093,VALID,0,VALID,21.416,VALID,36,VALID,0.601563,
2011-05-07, 00:34:04,VALID,916.743,VALID,0,VALID,92.6779,VALID,0,VALID,21.4177,VALID,36,VALID,0.722266,
2011-05-07, 00:35:04,VALID,916.776,VALID,0,VALID,92.9904,VALID,0.107441,VALID,21.3965,VALID,148,VALID,0.873047,
2011-05-07, 00:36:04,VALID,916.721,VALID,0,VALID,92.777,VALID,0,VALID,21.377,VALID,24,VALID,1.33789,
2011-05-07, 00:37:04,VALID,916.73,VALID,0,VALID,92.7389,VALID,0.107441,VALID,21.377,VALID,243,VALID,1.20234,
2011-05-07, 00:38:04,VALID,916.692,VALID,0,VALID,92.8761,VALID,0.107441,VALID,21.4177,VALID,243,VALID,0.367969,
2011-05-07, 00:39:04,VALID,916.714,VALID,0,VALID,92.9828,VALID,0.107441,VALID,21.416,VALID,260,VALID,1.16836,
2011-05-07, 00:40:04,VALID,916.755,VALID,0,VALID,93.1658,VALID,0.107441,VALID,21.3965,VALID,18,VALID,1.5293,
2011-05-07, 00:41:04,VALID,916.712,VALID,0,VALID,93.2039,VALID,0,VALID,21.377,VALID,204,VALID,1.13477,
2011-05-07, 00:42:04,VALID,916.743,VALID,0,VALID,93.5088,VALID,0.107441,VALID,21.377,VALID,2,VALID,1.64453,
2011-05-07, 00:43:04,VALID,916.685,VALID,0,VALID,93.6155,VALID,0.107441,VALID,21.377,VALID,59,VALID,0.542188,
2011-05-07, 00:44:04,VALID,916.614,VALID,0,VALID,93.6384,VALID,0.107441,VALID,21.338,VALID,64,VALID,1.08867,
2011-05-07, 00:45:04,VALID,916.646,VALID,0,VALID,93.8824,VALID,0.107441,VALID,21.3185,VALID,282,VALID,0.796484,
2011-05-07, 00:46:04,VALID,916.699,VALID,0,VALID,94.1416,VALID,0,VALID,21.3591,VALID,50,VALID,0.8125,
2011-05-07, 00:47:04,VALID,916.714,VALID,0,VALID,94.3398,VALID,0.107441,VALID,21.338,VALID,50,VALID,0.407813,
2011-05-07, 00:48:04,VALID,916.668,VALID,0,VALID,94.3703,VALID,0.107441,VALID,21.299,VALID,21,VALID,0.614062,
2011-05-07, 00:49:04,VALID,916.674,VALID,0,VALID,94.3855,VALID,0.107441,VALID,21.3006,VALID,175,VALID,0.8875,
2011-05-07, 00:50:04,VALID,916.636,VALID,0,VALID,94.5304,VALID,0.107441,VALID,21.2795,VALID,116,VALID,0.904297,
2011-05-07, 00:51:04,VALID,916.686,VALID,0.2,VALID,94.5761,VALID,0.107441,VALID,21.2795,VALID,115,VALID,0.901953,
2011-05-07, 00:52:04,VALID,916.562,VALID,0.2,VALID,94.7286,VALID,0.107441,VALID,21.2811,VALID,50,VALID,2.07422,
2011-05-07, 00:53:04,VALID,916.636,VALID,0,VALID,94.82,VALID,0.107441,VALID,21.2421,VALID,6,VALID,0.895312,
2011-05-07, 00:54:04,VALID,916.722,VALID,0,VALID,94.881,VALID,0.107441,VALID,21.221,VALID,190,VALID,0.560547,
2011-05-07, 00:55:04,VALID,916.65,VALID,0,VALID,94.9115,VALID,0.107441,VALID,21.2226,VALID,130,VALID,1.23398,
2011-05-07, 00:56:04,VALID,916.599,VALID,0,VALID,95.0716,VALID,0.107441,VALID,21.2031,VALID,73,VALID,1.64531,
2011-05-07, 00:57:04,VALID,916.589,VALID,0,VALID,95.2165,VALID,0.107441,VALID,21.2015,VALID,61,VALID,1.64063,
2011-05-07, 00:58:04,VALID,916.538,VALID,0,VALID,95.1631,VALID,0.107441,VALID,21.1429,VALID,30,VALID,0.823828,
2011-05-07, 00:59:04,VALID,916.561,VALID,0,VALID,95.3003,VALID,0.107441,VALID,21.1429,VALID,54,VALID,0.592188,
2011-05-07, 01:00:04,VALID,916.602,VALID,0,VALID,95.3994,VALID,0.107441,VALID,21.164,VALID,360,VALID,0.466406,
2011-05-07, 01:01:04,VALID,916.605,VALID,0,VALID,95.4223,VALID,0.107441,VALID,21.1039,VALID,360,VALID,0.595703,
2011-05-07, 01:02:04,VALID,916.622,VALID,0,VALID,95.5595,VALID,0,VALID,21.125,VALID,79,VALID,1.41992,
2011-05-07, 01:03:04,VALID,916.679,VALID,0,VALID,95.6586,VALID,0,VALID,21.1234,VALID,92,VALID,0.703125,
2011-05-07, 01:04:04,VALID,916.627,VALID,0,VALID,95.6662,VALID,0.107441,VALID,21.125,VALID,213,VALID,1.50273,
2011-05-07, 01:05:04,VALID,916.599,VALID,0,VALID,95.712,VALID,0,VALID,21.086,VALID,98,VALID,1.35312,
2011-05-07, 01:06:04,VALID,916.45,VALID,0,VALID,95.773,VALID,0,VALID,21.0649,VALID,110,VALID,1.46797,
2011-05-07, 01:07:04,VALID,916.532,VALID,0,VALID,95.8187,VALID,0,VALID,21.0665,VALID,263,VALID,1.65,
2011-05-07, 01:08:04,VALID,916.52,VALID,0,VALID,95.8873,VALID,0.107441,VALID,21.0275,VALID,179,VALID,0.85625,
2011-05-07, 01:09:04,VALID,916.51,VALID,0,VALID,95.9407,VALID,0.107441,VALID,21.0275,VALID,49,VALID,2.01055,
2011-05-07, 01:10:04,VALID,916.442,VALID,0,VALID,95.9864,VALID,0,VALID,21.0275,VALID,27,VALID,3.00742,
2011-05-07, 01:11:04,VALID,916.427,VALID,0,VALID,96.1236,VALID,0,VALID,21.0454,VALID,193,VALID,1.4668,
2011-05-07, 01:12:04,VALID,916.521,VALID,0,VALID,96.1313,VALID,0.107441,VALID,21.0275,VALID,74,VALID,0.729297,
2011-05-07, 01:13:04,VALID,916.458,VALID,0,VALID,96.1694,VALID,0.107441,VALID,21.0259,VALID,295,VALID,1.30234,
2011-05-07, 01:14:04,VALID,916.482,VALID,0,VALID,96.1694,VALID,0.107441,VALID,20.9869,VALID,28,VALID,1.70156,
2011-05-07, 01:15:04,VALID,916.494,VALID,0,VALID,96.2456,VALID,0,VALID,21.008,VALID,32,VALID,0.515625,
2011-05-07, 01:16:04,VALID,916.47,VALID,0,VALID,96.2456,VALID,0.107441,VALID,21.0275,VALID,82,VALID,1.14297,
2011-05-07, 01:17:04,VALID,916.449,VALID,0,VALID,96.3066,VALID,0,VALID,21.0275,VALID,32,VALID,1.71523,
2011-05-07, 01:18:04,VALID,916.416,VALID,0,VALID,96.3447,VALID,0,VALID,21.0665,VALID,19,VALID,1.46719,
2011-05-07, 01:19:04,VALID,916.448,VALID,0,VALID,96.3371,VALID,0.107441,VALID,21.0275,VALID,37,VALID,0.662109,
2011-05-07, 01:20:04,VALID,916.426,VALID,0,VALID,96.3142,VALID,0.107441,VALID,21.008,VALID,136,VALID,1.13281,
2011-05-07, 01:21:04,VALID,916.41,VALID,0,VALID,96.2761,VALID,0,VALID,20.9885,VALID,283,VALID,1.72422,
2011-05-07, 01:22:04,VALID,916.408,VALID,0,VALID,96.299,VALID,0,VALID,20.969,VALID,38,VALID,1.62695,
2011-05-07, 01:23:04,VALID,916.427,VALID,0,VALID,96.3829,VALID,0,VALID,21.0291,VALID,8,VALID,0.916016,
2011-05-07, 01:24:04,VALID,916.423,VALID,0,VALID,96.3905,VALID,0,VALID,21.0291,VALID,53,VALID,0.464063,
2011-05-07, 01:25:04,VALID,916.42,VALID,0,VALID,96.3829,VALID,0,VALID,21.008,VALID,4,VALID,0.980469,
2011-05-07, 01:26:04,VALID,916.443,VALID,0,VALID,96.4286,VALID,0,VALID,21.0275,VALID,5,VALID,0.366406,
2011-05-07, 01:27:04,VALID,916.37,VALID,0,VALID,96.3829,VALID,0,VALID,21.0291,VALID,65,VALID,1.53242,
2011-05-07, 01:28:04,VALID,916.394,VALID,0,VALID,96.4591,VALID,0,VALID,21.008,VALID,57,VALID,2.01641,
2011-05-07, 01:29:04,VALID,916.402,VALID,0,VALID,96.4972,VALID,0,VALID,21.047,VALID,25,VALID,0.799609,
2011-05-07, 01:30:04,VALID,916.388,VALID,0,VALID,96.4972,VALID,0,VALID,21.047,VALID,78,VALID,0.787891,
2011-05-07, 01:31:04,VALID,916.425,VALID,0,VALID,96.5201,VALID,0,VALID,21.047,VALID,25,VALID,1.12578,
2011-05-07, 01:32:04,VALID,916.404,VALID,0,VALID,96.5201,VALID,0,VALID,21.0665,VALID,25,VALID,0.837109,
2011-05-07, 01:33:04,VALID,916.359,VALID,0,VALID,96.5048,VALID,0,VALID,21.0275,VALID,128,VALID,0.903906,
2011-05-07, 01:34:04,VALID,916.351,VALID,0,VALID,96.5201,VALID,0,VALID,21.0486,VALID,35,VALID,1.61953,
2011-05-07, 01:35:04,VALID,916.354,VALID,0,VALID,96.5048,VALID,0,VALID,21.008,VALID,45,VALID,1.52891,
2011-05-07, 01:36:04,VALID,916.36,VALID,0,VALID,96.5429,VALID,0,VALID,21.047,VALID,3,VALID,1.21133,
2011-05-07, 01:37:04,VALID,916.362,VALID,0,VALID,96.5658,VALID,0,VALID,21.047,VALID,359,VALID,0.455859,
2011-05-07, 01:38:04,VALID,916.382,VALID,0,VALID,96.5353,VALID,0,VALID,21.0275,VALID,124,VALID,0.638281,
2011-05-07, 01:39:04,VALID,916.369,VALID,0,VALID,96.5201,VALID,0,VALID,21.008,VALID,57,VALID,0.679688,
2011-05-07, 01:40:04,VALID,916.354,VALID,0,VALID,96.5429,VALID,0,VALID,21.008,VALID,56,VALID,1.36445,
2011-05-07, 01:41:04,VALID,916.367,VALID,0,VALID,96.5353,VALID,0,VALID,21.0486,VALID,17,VALID,1.85508,
2011-05-07, 01:42:04,VALID,916.332,VALID,0,VALID,96.5506,VALID,0,VALID,21.008,VALID,13,VALID,1.81602,
2011-05-07, 01:43:04,VALID,916.337,VALID,0,VALID,96.5353,VALID,0,VALID,21.0291,VALID,46,VALID,1.53008,
2011-05-07, 01:44:04,VALID,916.331,VALID,0,VALID,96.5048,VALID,0,VALID,20.9885,VALID,324,VALID,1.4375,
2011-05-07, 01:45:04,VALID,916.343,VALID,0,VALID,96.5582,VALID,0,VALID,20.9885,VALID,60,VALID,0.285937,
2011-05-07, 01:46:04,VALID,916.378,VALID,0,VALID,96.5506,VALID,0,VALID,21.008,VALID,44,VALID,0.499219,
2011-05-07, 01:47:04,VALID,916.318,VALID,0,VALID,96.4819,VALID,0,VALID,20.9885,VALID,34,VALID,1.74727,
2011-05-07, 01:48:04,VALID,916.348,VALID,0,VALID,96.5124,VALID,0,VALID,20.9495,VALID,29,VALID,1.44258,
2011-05-07, 01:49:04,VALID,916.356,VALID,0,VALID,96.5201,VALID,0,VALID,20.969,VALID,22,VALID,1.06914,
2011-05-07, 01:50:04,VALID,916.281,VALID,0,VALID,96.5048,VALID,0,VALID,20.9901,VALID,109,VALID,0.646484,
2011-05-07, 01:51:04,VALID,916.241,VALID,0,VALID,96.4515,VALID,0,VALID,20.93,VALID,109,VALID,1.13906,
2011-05-07, 01:52:04,VALID,916.223,VALID,0,VALID,96.5201,VALID,0,VALID,20.93,VALID,109,VALID,0.308984,
2011-05-07, 01:53:04,VALID,916.216,VALID,0,VALID,96.5048,VALID,0,VALID,20.9105,VALID,108,VALID,0.252344,
2011-05-07, 01:54:04,VALID,916.162,VALID,0,VALID,96.4438,VALID,0,VALID,20.891,VALID,109,VALID,0.426562,
2011-05-07, 01:55:04,VALID,916.209,VALID,0,VALID,96.4819,VALID,0,VALID,20.8714,VALID,109,VALID,1.2707,
2011-05-07, 01:56:04,VALID,916.184,VALID,0,VALID,96.5124,VALID,0,VALID,20.891,VALID,109,VALID,0.947656,
2011-05-07, 01:57:04,VALID,916.16,VALID,0,VALID,96.4972,VALID,0,VALID,20.8925,VALID,97,VALID,1.29844,
2011-05-07, 01:58:04,VALID,916.188,VALID,0,VALID,96.5201,VALID,0,VALID,20.8714,VALID,67,VALID,0.899219,
2011-05-07, 01:59:04,VALID,916.165,VALID,0,VALID,96.5506,VALID,0,VALID,20.8925,VALID,74,VALID,1.42656,
2011-05-07, 02:00:04,VALID,916.162,VALID,0,VALID,96.5658,VALID,0,VALID,20.891,VALID,44,VALID,0.222266,
2011-05-07, 02:01:04,VALID,916.177,VALID,0,VALID,96.5429,VALID,0,VALID,20.8714,VALID,320,VALID,1.28242,
2011-05-07, 02:02:04,VALID,916.189,VALID,0,VALID,96.5353,VALID,0,VALID,20.8714,VALID,258,VALID,0.442187,
2011-05-07, 02:03:04,VALID,916.193,VALID,0,VALID,96.5887,VALID,0.107441,VALID,20.9105,VALID,258,VALID,0.139844,
2011-05-07, 02:04:04,VALID,916.115,VALID,0,VALID,96.5658,VALID,0,VALID,20.891,VALID,294,VALID,1.25781,
2011-05-07, 02:05:04,VALID,916.158,VALID,0,VALID,96.5353,VALID,0,VALID,20.912,VALID,316,VALID,0.298828,
2011-05-07, 02:06:04,VALID,916.176,VALID,0,VALID,96.5124,VALID,0,VALID,20.8714,VALID,316,VALID,0.0117188,
2011-05-07, 02:07:04,VALID,916.188,VALID,0,VALID,96.5201,VALID,0,VALID,20.8324,VALID,296,VALID,0.784766,
2011-05-07, 02:08:04,VALID,916.158,VALID,0,VALID,96.4286,VALID,0,VALID,20.8324,VALID,18,VALID,1.35273,
2011-05-07, 02:09:04,VALID,916.123,VALID,0,VALID,96.4438,VALID,0.107441,VALID,20.8129,VALID,18,VALID,1.70938,
2011-05-07, 02:10:04,VALID,916.14,VALID,0,VALID,96.4515,VALID,0,VALID,20.834,VALID,10,VALID,0.116016,
2011-05-07, 02:11:04,VALID,916.134,VALID,0,VALID,96.3981,VALID,0,VALID,20.795,VALID,39,VALID,1.86914,
2011-05-07, 02:12:04,VALID,916.116,VALID,0,VALID,96.4438,VALID,0,VALID,20.7934,VALID,343,VALID,0.533594,
2011-05-07, 02:13:04,VALID,916.121,VALID,0,VALID,96.4362,VALID,0,VALID,20.7934,VALID,36,VALID,1.44961,
2011-05-07, 02:14:04,VALID,916.146,VALID,0,VALID,96.4743,VALID,0,VALID,20.8129,VALID,16,VALID,0.785547,
2011-05-07, 02:15:04,VALID,916.084,VALID,0,VALID,96.4591,VALID,0,VALID,20.8324,VALID,16,VALID,0.598437,
2011-05-07, 02:16:04,VALID,916.076,VALID,0,VALID,96.4591,VALID,0,VALID,20.8324,VALID,41,VALID,1.71719,
2011-05-07, 02:17:04,VALID,916.094,VALID,0,VALID,96.4591,VALID,0,VALID,20.8324,VALID,29,VALID,0.513672,
2011-05-07, 02:18:04,VALID,916.061,VALID,0,VALID,96.4667,VALID,0,VALID,20.873,VALID,40,VALID,0.830859,
2011-05-07, 02:19:04,VALID,916.039,VALID,0,VALID,96.4743,VALID,0,VALID,20.8519,VALID,40,VALID,0.883984,
2011-05-07, 02:20:04,VALID,916.038,VALID,0,VALID,96.4591,VALID,0,VALID,20.8519,VALID,40,VALID,0.545703,
2011-05-07, 02:21:04,VALID,916.022,VALID,0,VALID,96.4743,VALID,0,VALID,20.8519,VALID,40,VALID,0.884766,
2011-05-07, 02:22:04,VALID,916.027,VALID,0,VALID,96.4743,VALID,0,VALID,20.8519,VALID,40,VALID,0.39375,
2011-05-07, 02:23:04,VALID,916,VALID,0,VALID,96.4515,VALID,0,VALID,20.8519,VALID,146,VALID,0.683594,
2011-05-07, 02:24:04,VALID,915.979,VALID,0,VALID,96.4667,VALID,0,VALID,20.8519,VALID,146,VALID,0.400391,
2011-05-07, 02:25:04,VALID,915.938,VALID,0,VALID,96.5201,VALID,0,VALID,20.891,VALID,146,VALID,0.281641,
2011-05-07, 02:26:04,VALID,915.915,VALID,0,VALID,96.4362,VALID,0,VALID,20.8925,VALID,239,VALID,1.39766,
2011-05-07, 02:27:04,VALID,915.89,VALID,0,VALID,96.4362,VALID,0,VALID,20.873,VALID,248,VALID,0.593359,
2011-05-07, 02:28:04,VALID,915.888,VALID,0,VALID,96.4438,VALID,0,VALID,20.8519,VALID,248,VALID,0.214453,
2011-05-07, 02:29:04,VALID,915.89,VALID,0,VALID,96.4362,VALID,0,VALID,20.8714,VALID,249,VALID,0.34375,
2011-05-07, 02:30:04,VALID,915.914,VALID,0,VALID,96.4286,VALID,0,VALID,20.891,VALID,248,VALID,0.589063,
2011-05-07, 02:31:04,VALID,915.884,VALID,0,VALID,96.3981,VALID,0,VALID,20.8925,VALID,99,VALID,1.20898,
2011-05-07, 02:32:04,VALID,915.86,VALID,0,VALID,96.4133,VALID,0,VALID,20.891,VALID,33,VALID,1.28164,
2011-05-07, 02:33:04,VALID,915.772,VALID,0,VALID,96.3676,VALID,0,VALID,20.8714,VALID,38,VALID,1.59766,
2011-05-07, 02:34:04,VALID,915.807,VALID,0,VALID,96.3981,VALID,0,VALID,20.891,VALID,40,VALID,0.835156,
2011-05-07, 02:35:04,VALID,915.834,VALID,0,VALID,96.3829,VALID,0,VALID,20.912,VALID,40,VALID,1.26055,
2011-05-07, 02:36:04,VALID,915.798,VALID,0,VALID,96.3829,VALID,0,VALID,20.891,VALID,40,VALID,0.448047,
2011-05-07, 02:37:04,VALID,915.799,VALID,0,VALID,96.3905,VALID,0,VALID,20.8925,VALID,40,VALID,0.860156,
2011-05-07, 02:38:04,VALID,915.796,VALID,0,VALID,96.3752,VALID,0,VALID,20.912,VALID,40,VALID,0.7,
2011-05-07, 02:39:04,VALID,915.764,VALID,0,VALID,96.3295,VALID,0,VALID,20.9136,VALID,314,VALID,1.71484,
2011-05-07, 02:40:04,VALID,915.83,VALID,0,VALID,96.3066,VALID,0,VALID,20.873,VALID,352,VALID,0.867969,
2011-05-07, 02:41:04,VALID,915.81,VALID,0,VALID,96.2685,VALID,0,VALID,20.873,VALID,241,VALID,0.645312,
2011-05-07, 02:42:04,VALID,915.771,VALID,0,VALID,96.2075,VALID,0,VALID,20.8535,VALID,347,VALID,1.38242,
2011-05-07, 02:43:04,VALID,915.794,VALID,0,VALID,96.1389,VALID,0,VALID,20.834,VALID,40,VALID,1.0668,
2011-05-07, 02:44:04,VALID,915.816,VALID,0,VALID,96.0703,VALID,0,VALID,20.834,VALID,40,VALID,1.05,
2011-05-07, 02:45:04,VALID,915.9,VALID,0,VALID,96.0855,VALID,0,VALID,20.8356,VALID,47,VALID,1.45391,
2011-05-07, 02:46:04,VALID,915.897,VALID,0,VALID,96.0855,VALID,0,VALID,20.8356,VALID,8,VALID,1.21289,
2011-05-07, 02:47:04,VALID,915.825,VALID,0,VALID,96.055,VALID,0,VALID,20.8161,VALID,34,VALID,1.74063,
2011-05-07, 02:48:04,VALID,915.895,VALID,0,VALID,96.0093,VALID,0,VALID,20.8161,VALID,242,VALID,0.431641,
2011-05-07, 02:49:04,VALID,915.856,VALID,0,VALID,96.0398,VALID,0,VALID,20.795,VALID,175,VALID,0.845312,
2011-05-07, 02:50:04,VALID,915.897,VALID,0,VALID,96.1084,VALID,0,VALID,20.834,VALID,102,VALID,0.283203,
2011-05-07, 02:51:04,VALID,915.809,VALID,0,VALID,96.0932,VALID,0,VALID,20.8535,VALID,209,VALID,1.95625,
2011-05-07, 02:52:04,VALID,915.858,VALID,0,VALID,96.0779,VALID,0,VALID,20.873,VALID,11,VALID,1.82187,
2011-05-07, 02:53:04,VALID,915.858,VALID,0,VALID,96.0855,VALID,0,VALID,20.8714,VALID,357,VALID,1.38633,
2011-05-07, 02:54:04,VALID,915.824,VALID,0,VALID,96.055,VALID,0,VALID,20.891,VALID,31,VALID,1.55859,
2011-05-07, 02:55:04,VALID,915.808,VALID,0,VALID,96.055,VALID,0,VALID,20.912,VALID,39,VALID,0.457812,
2011-05-07, 02:56:04,VALID,915.734,VALID,0,VALID,96.1008,VALID,0,VALID,20.9316,VALID,26,VALID,1.64883,
2011-05-07, 02:57:04,VALID,915.75,VALID,0,VALID,96.1236,VALID,0,VALID,20.9105,VALID,353,VALID,0.898828,
2011-05-07, 02:58:04,VALID,915.743,VALID,0,VALID,96.1313,VALID,0,VALID,20.9316,VALID,328,VALID,0.732813,
2011-05-07, 02:59:04,VALID,915.728,VALID,0,VALID,96.1541,VALID,0,VALID,20.93,VALID,228,VALID,1.09922,
2011-05-07, 03:00:04,VALID,915.707,VALID,0,VALID,96.1618,VALID,0,VALID,20.9495,VALID,253,VALID,2.87148,
2011-05-07, 03:01:04,VALID,915.764,VALID,0,VALID,96.1694,VALID,0,VALID,20.9511,VALID,19,VALID,0.93125,
2011-05-07, 03:02:04,VALID,915.731,VALID,0,VALID,96.1846,VALID,0,VALID,20.9706,VALID,259,VALID,2.08125,
2011-05-07, 03:03:04,VALID,915.703,VALID,0,VALID,96.2075,VALID,0,VALID,20.9495,VALID,167,VALID,0.910156,
2011-05-07, 03:04:04,VALID,915.712,VALID,0,VALID,96.2609,VALID,0,VALID,20.969,VALID,17,VALID,1.13047,
2011-05-07, 03:05:04,VALID,915.685,VALID,0,VALID,96.299,VALID,0,VALID,21.0096,VALID,29,VALID,2.35156,
2011-05-07, 03:06:04,VALID,915.676,VALID,0,VALID,96.2533,VALID,0,VALID,20.969,VALID,62,VALID,1.53477,
2011-05-07, 03:07:04,VALID,915.707,VALID,0,VALID,96.2914,VALID,0,VALID,20.9901,VALID,37,VALID,0.861328,
2011-05-07, 03:08:04,VALID,915.665,VALID,0,VALID,96.3066,VALID,0,VALID,21.0096,VALID,53,VALID,1.35938,
2011-05-07, 03:09:04,VALID,915.64,VALID,0,VALID,96.2914,VALID,0,VALID,20.969,VALID,326,VALID,1.08398,
2011-05-07, 03:10:04,VALID,915.683,VALID,0,VALID,96.3371,VALID,0,VALID,20.9901,VALID,279,VALID,0.518359,
2011-05-07, 03:11:04,VALID,915.689,VALID,0,VALID,96.2914,VALID,0,VALID,20.9495,VALID,253,VALID,2.10391,
2011-05-07, 03:12:04,VALID,915.691,VALID,0,VALID,96.3524,VALID,0,VALID,20.9901,VALID,47,VALID,2.11719,
2011-05-07, 03:13:04,VALID,915.661,VALID,0,VALID,96.4057,VALID,0,VALID,21.0096,VALID,51,VALID,0.769922,
2011-05-07, 03:14:04,VALID,915.611,VALID,0.2,VALID,96.4133,VALID,0,VALID,21.0096,VALID,43,VALID,1.63281,
2011-05-07, 03:15:04,VALID,915.633,VALID,0,VALID,96.3219,VALID,0,VALID,21.0096,VALID,331,VALID,0.8625,
2011-05-07, 03:16:04,VALID,915.65,VALID,0,VALID,96.3219,VALID,0,VALID,20.969,VALID,175,VALID,0.791797,
2011-05-07, 03:17:04,VALID,915.643,VALID,0,VALID,96.3219,VALID,0,VALID,20.9901,VALID,238,VALID,0.864844,
2011-05-07, 03:18:04,VALID,915.659,VALID,0,VALID,96.36,VALID,0,VALID,20.9885,VALID,238,VALID,0.658203,
2011-05-07, 03:19:04,VALID,915.618,VALID,0,VALID,96.36,VALID,0,VALID,21.0291,VALID,61,VALID,1.85273,
2011-05-07, 03:20:04,VALID,915.634,VALID,0,VALID,96.2685,VALID,0,VALID,20.9706,VALID,147,VALID,0.709375,
2011-05-07, 03:21:04,VALID,915.572,VALID,0,VALID,96.2914,VALID,0,VALID,20.9901,VALID,170,VALID,0.867188,
2011-05-07, 03:22:04,VALID,915.642,VALID,0,VALID,96.2914,VALID,0,VALID,20.9901,VALID,301,VALID,1.33945,
2011-05-07, 03:23:04,VALID,915.581,VALID,0,VALID,96.1846,VALID,0,VALID,20.9511,VALID,18,VALID,2.41563,
2011-05-07, 03:24:04,VALID,915.593,VALID,0,VALID,96.1923,VALID,0,VALID,20.9706,VALID,296,VALID,2.38125,
2011-05-07, 03:25:04,VALID,915.625,VALID,0,VALID,96.1389,VALID,0,VALID,20.9511,VALID,192,VALID,1.06523,
2011-05-07, 03:26:04,VALID,915.681,VALID,0,VALID,96.0855,VALID,0,VALID,20.9511,VALID,252,VALID,1.175,
2011-05-07, 03:27:04,VALID,915.717,VALID,0,VALID,96.0779,VALID,0,VALID,20.9511,VALID,240,VALID,0.260547,
2011-05-07, 03:28:04,VALID,915.741,VALID,0,VALID,96.1389,VALID,0,VALID,20.9495,VALID,8,VALID,0.535937,
2011-05-07, 03:29:04,VALID,915.737,VALID,0,VALID,96.0855,VALID,0,VALID,20.9495,VALID,11,VALID,0.589063,
2011-05-07, 03:30:04,VALID,915.81,VALID,0,VALID,96.0398,VALID,0,VALID,20.9495,VALID,255,VALID,1.42773,
2011-05-07, 03:31:04,VALID,915.781,VALID,0,VALID,95.9788,VALID,0,VALID,20.93,VALID,268,VALID,3.33789,
2011-05-07, 03:32:04,VALID,915.803,VALID,0,VALID,95.9178,VALID,0,VALID,20.9495,VALID,287,VALID,3.31367,
2011-05-07, 03:33:04,VALID,915.807,VALID,0,VALID,95.8721,VALID,0,VALID,20.9901,VALID,286,VALID,1.67578,
2011-05-07, 03:34:04,VALID,915.79,VALID,0,VALID,95.8187,VALID,0,VALID,20.9885,VALID,259,VALID,1.47031,
2011-05-07, 03:35:04,VALID,915.877,VALID,0,VALID,95.7882,VALID,0,VALID,20.9885,VALID,259,VALID,1.26289,
2011-05-07, 03:36:04,VALID,915.752,VALID,0,VALID,95.7806,VALID,0,VALID,20.9885,VALID,252,VALID,3.31875,
2011-05-07, 03:37:04,VALID,915.67,VALID,0,VALID,95.8416,VALID,0,VALID,21.008,VALID,27,VALID,2.20469,
2011-05-07, 03:38:04,VALID,915.67,VALID,0,VALID,95.8263,VALID,0,VALID,21.0275,VALID,189,VALID,1.71836,
2011-05-07, 03:39:04,VALID,915.777,VALID,0,VALID,95.7577,VALID,0,VALID,21.008,VALID,252,VALID,2.63594,
2011-05-07, 03:40:04,VALID,915.779,VALID,0,VALID,95.773,VALID,0,VALID,20.9885,VALID,259,VALID,2.17383,
2011-05-07, 03:41:04,VALID,915.764,VALID,0,VALID,95.8568,VALID,0,VALID,21.008,VALID,9,VALID,2.03281,
2011-05-07, 03:42:04,VALID,915.781,VALID,0,VALID,95.8873,VALID,0,VALID,21.008,VALID,192,VALID,1.38086,
2011-05-07, 03:43:04,VALID,915.809,VALID,0.2,VALID,95.8568,VALID,0,VALID,20.9885,VALID,295,VALID,1.89805,
2011-05-07, 03:44:04,VALID,915.785,VALID,0,VALID,95.9026,VALID,0,VALID,20.969,VALID,244,VALID,2.7668,